Weather History for New Philadelphia, OH

Change the Weather History Date:

Wednesday, March 6, 2013

  Actual Average Record
Temperature  
Mean Temperature 38 °F 36 °F  
Max Temperature 43 °F 47 °F 81 °F (1983)
Min Temperature 33 °F 26 °F 7 °F (1978)
Degree Days  
Heating Degree Days 27 29  
Month to date heating degree days 205 177  
Since 1 July heating degree days 4335 4384  
Cooling Degree Days 0 0  
Month to date cooling degree days 0 0  
Year to date cooling degree days 0 0  
Moisture  
Dew Point 29 °F    
Average Humidity 73    
Maximum Humidity 89    
Minimum Humidity 57    
Precipitation  
Precipitation 0.16 in 0.10 in 0.83 in (1967)
Month to date precipitation 0.18 0.53  
Year to date precipitation 3.34 5.49  
Sea Level Pressure  
Sea Level Pressure 29.84 in    
Wind  
Wind Speed 7 mph (NE)    
Max Wind Speed 17 mph    
Max Gust Speed 23 mph    
Visibility 8 miles    
Events Snow    
T = Trace of Precipitation, MM = Missing Value Source: NWS Daily Summary

Daily Weather History Graph

Daily Weather History Graph

Search for Another Location

Airport:

Trip Planner

Search our weather history database for the weather conditions in past years. The results will help you decide how hot, cold, wet, or windy it might be!

Date:

Astronomy

Mar. 06, 2013 Rise Set
Actual Time 6:51 AM EST 6:23 PM EST
Civil Twilight 6:24 AM EST 6:50 PM EST
Nautical Twilight 5:52 AM EST 7:21 PM EST
Astronomical Twilight 5:20 AM EST 7:53 PM EST
Moon 3:00 AM EST (3/6) 1:02 PM EST (3/6)
Length of Visible Light 12h 26m
Length of Day
11h 31m
Waning Crescent, 30% of the Moon is Illuminated
Mar 6
Waning Crescent
Mar 11
New
Mar 19
First Quarter
Mar 27
Full
Apr 3
Last Quarter

Hourly Weather History & Observations

Time (EST) Temp. Windchill Dew Point Humidity Pressure Visibility Wind Dir Wind Speed Gust Speed Precip Events Conditions
12:00 AM 35.6 °F 26.6 °F 28.4 °F 75% 29.61 in 2.0 mi East 13.8 mph 19.6 mph 0.01 in Snow Light Snow
12:10 AM 33.8 °F 25.8 °F 30.2 °F 87% 29.61 in 1.2 mi East 10.4 mph - 0.01 in Snow Light Snow
12:14 AM 33.8 °F 25.8 °F 30.2 °F 87% 29.61 in 1.0 mi East 10.4 mph - 0.01 in Snow Light Snow
12:22 AM 33.8 °F 25.8 °F 30.2 °F 87% 29.61 in 0.8 mi East 10.4 mph - 0.02 in Snow Light Snow
12:30 AM 33.8 °F 27.7 °F 30.2 °F 87% 29.61 in 1.0 mi East 6.9 mph - 0.03 in Snow Light Snow
12:53 AM 34.0 °F 26.6 °F 30.9 °F 89% 29.64 in 0.8 mi East 9.2 mph - 0.05 in Snow Light Snow
1:39 AM 33.8 °F 28.6 °F 30.2 °F 87% 29.63 in 0.8 mi Variable 5.8 mph - 0.06 in Snow Light Snow
1:53 AM 34.0 °F 26.6 °F 30.9 °F 89% 29.65 in 0.8 mi ENE 9.2 mph - 0.08 in Snow Light Snow
2:19 AM 33.8 °F 27.7 °F 30.2 °F 87% 29.63 in 1.0 mi East 6.9 mph - 0.02 in Snow Light Snow
2:25 AM 33.8 °F 26.4 °F 30.2 °F 87% 29.63 in 1.2 mi ENE 9.2 mph - 0.02 in Snow Light Snow
2:53 AM 34.0 °F 27.2 °F 30.0 °F 85% 29.65 in 1.5 mi ENE 8.1 mph - 0.03 in Snow Light Snow
3:03 AM 33.8 °F 26.4 °F 30.2 °F 87% 29.64 in 1.5 mi East 9.2 mph - 0.01 in Snow Light Snow
3:11 AM 33.8 °F 27.0 °F 30.2 °F 87% 29.64 in 2.0 mi East 8.1 mph 18.4 mph 0.01 in Snow Light Snow
3:20 AM 33.8 °F 25.8 °F 30.2 °F 87% 29.64 in 3.0 mi East 10.4 mph - 0.01 in Snow Light Snow
3:29 AM 33.8 °F 24.8 °F 30.2 °F 87% 29.64 in 7.0 mi East 12.7 mph 21.9 mph 0.01 in   Overcast
3:39 AM 33.8 °F 24.8 °F 30.2 °F 87% 29.65 in 10.0 mi East 12.7 mph 21.9 mph 0.01 in   Overcast
3:53 AM 34.0 °F 24.6 °F 30.0 °F 85% 29.67 in 10.0 mi East 13.8 mph 23.0 mph 0.01 in   Overcast
4:18 AM 35.6 °F 27.1 °F 28.4 °F 75% 29.67 in 10.0 mi East 12.7 mph 21.9 mph N/A   Overcast
4:26 AM 35.6 °F 27.1 °F 28.4 °F 75% 29.67 in 10.0 mi East 12.7 mph 21.9 mph N/A   Overcast
4:53 AM 35.1 °F 26.4 °F 28.9 °F 78% 29.71 in 8.0 mi East 12.7 mph 20.7 mph N/A   Overcast
5:36 AM 33.8 °F 26.4 °F 30.2 °F 87% 29.73 in 10.0 mi East 9.2 mph - N/A   Overcast
5:53 AM 34.0 °F 26.6 °F 30.0 °F 85% 29.76 in 10.0 mi East 9.2 mph - N/A   Overcast
6:05 AM 33.8 °F 26.4 °F 30.2 °F 87% 29.75 in 10.0 mi East 9.2 mph - N/A   Overcast
6:29 AM 33.8 °F 27.7 °F 30.2 °F 87% 29.77 in 10.0 mi East 6.9 mph - N/A   Overcast
6:37 AM 33.8 °F 28.6 °F 30.2 °F 87% 29.78 in 10.0 mi ENE 5.8 mph - N/A   Overcast
6:53 AM 34.0 °F 28.8 °F 30.0 °F 85% 29.82 in 9.0 mi ENE 5.8 mph - N/A   Overcast
7:07 AM 33.8 °F 27.7 °F 30.2 °F 87% 29.81 in 10.0 mi ENE 6.9 mph - N/A   Overcast
7:29 AM 33.8 °F 28.6 °F 30.2 °F 87% 29.82 in 10.0 mi ENE 5.8 mph - N/A   Overcast
7:44 AM 33.8 °F 28.6 °F 28.4 °F 81% 29.84 in 10.0 mi ENE 5.8 mph - N/A   Mostly Cloudy
7:53 AM 34.0 °F 28.8 °F 28.9 °F 82% 29.87 in 10.0 mi ENE 5.8 mph - N/A   Mostly Cloudy
8:43 AM 35.6 °F 30.7 °F 28.4 °F 75% 29.88 in 10.0 mi ENE 5.8 mph - N/A   Overcast
8:53 AM 35.1 °F 30.1 °F 30.0 °F 82% 29.91 in 10.0 mi ENE 5.8 mph - N/A   Mostly Cloudy
9:53 AM 36.0 °F 31.1 °F 28.9 °F 76% 29.95 in 10.0 mi NE 5.8 mph - N/A   Overcast
10:53 AM 37.9 °F 34.4 °F 30.0 °F 73% 29.98 in 10.0 mi ENE 4.6 mph - N/A   Overcast
11:26 AM 37.4 °F 32.1 °F 28.4 °F 70% 29.97 in 10.0 mi ENE 6.9 mph - N/A   Scattered Clouds
11:38 AM 37.4 °F 32.1 °F 28.4 °F 70% 29.98 in 10.0 mi ENE 6.9 mph - N/A   Mostly Cloudy
11:53 AM 39.0 °F 33.4 °F 28.9 °F 67% 30.01 in 10.0 mi NE 8.1 mph - N/A   Overcast
12:53 PM 39.9 °F 37.8 °F 28.9 °F 65% 30.03 in 10.0 mi NE 3.5 mph - N/A   Overcast
1:16 PM 39.2 °F - 28.4 °F 65% 30.01 in 10.0 mi Calm Calm - N/A   Overcast
1:32 PM 41.0 °F 37.1 °F 28.4 °F 61% 30.00 in 10.0 mi North 5.8 mph - N/A   Overcast
1:41 PM 41.0 °F 39.0 °F 28.4 °F 61% 30.00 in 10.0 mi NNW 3.5 mph - N/A   Overcast
1:53 PM 41.0 °F 37.1 °F 28.9 °F 62% 30.03 in 10.0 mi NW 5.8 mph - N/A   Overcast
2:53 PM 43.0 °F 39.5 °F 30.0 °F 60% 30.04 in 10.0 mi WNW 5.8 mph - N/A   Mostly Cloudy
3:53 PM 42.1 °F 36.6 °F 28.9 °F 60% 30.06 in 10.0 mi NW 9.2 mph - N/A   Overcast
4:53 PM 42.1 °F 38.4 °F 28.0 °F 58% 30.08 in 10.0 mi WNW 5.8 mph - N/A   Overcast
5:53 PM 41.0 °F 38.0 °F 30.0 °F 65% 30.09 in 10.0 mi West 4.6 mph - N/A   Overcast
6:53 PM 39.9 °F 36.7 °F 30.0 °F 68% 30.12 in 10.0 mi WNW 4.6 mph - N/A   Overcast
7:53 PM 39.9 °F 35.8 °F 30.0 °F 68% 30.14 in 10.0 mi WNW 5.8 mph - N/A   Overcast
8:53 PM 39.9 °F 35.1 °F 28.0 °F 63% 30.15 in 10.0 mi NW 6.9 mph - N/A   Overcast
9:53 PM 37.9 °F 32.7 °F 27.0 °F 65% 30.16 in 10.0 mi NW 6.9 mph - N/A   Overcast
10:53 PM 36.0 °F 30.3 °F 27.0 °F 70% 30.17 in 10.0 mi NW 6.9 mph - N/A   Overcast
11:53 PM 34.0 °F 27.2 °F 26.1 °F 73% 30.18 in 10.0 mi NW 8.1 mph - N/A   Partly Cloudy